Regional Weather Roundup
Issued by NWS

Home | Current Version | Previous Version | Text Only | Print | Product List | Glossary Off
Versions: 1 2 3 4 5 6 7 8 9 10 11 12 13 14 15 16 17 18 19 20 21 22 23 24 25 26

000
ASUS45 KSLC 231410
RWRUT

UTAH REGIONAL WEATHER ROUNDUP
NATIONAL WEATHER SERVICE SALT LAKE CITY UT
800 AM MDT FRI JUN 23 2017

UTZ001>011-023>025-231500-

NORTHERN UTAH

CITY           SKY/WX    TMP DP  RH WIND       PRES   REMARKS
BRIGHAM CITY   SUNNY     57  38  47 CALM      30.16R
HILL AFB       SUNNY     59  35  41 E14       30.17R
LOGAN          SUNNY     55  41  59 NW3       30.19R
OGDEN          SUNNY     63  36  36 SE10      30.15R
SALT LAKE CITY SUNNY     66  37  34 SE7       30.15R
TOOELE VALLEY  SUNNY     64  36  34 SW3       30.17R
WENDOVER         N/A     69  19  15 NW9       30.18R
HEBER CITY     SUNNY     52  37  58 CALM      30.23R
WEST JORDAN    SUNNY     64  41  43 CALM      30.18R

$$

UTZ011>015-024>027-231500-

CENTRAL/NORTHEAST UTAH

CITY           SKY/WX    TMP DP  RH WIND       PRES   REMARKS
PROVO AIRPORT  SUNNY     63  37  39 SE5       30.18R
MOAB/CANYONLAN SUNNY     76  30  18 CALM      30.08R
DELTA          SUNNY     64  32  29 CALM      30.17R
PRICE          SUNNY     69  29  22 NE15      30.19R
ROOSEVELT      SUNNY     63  36  36 CALM      30.23S
VERNAL         SUNNY     64  35  34 E14G21    30.21R

$$

UTZ013>016-019>022-027-231500-

SOUTHERN UTAH

CITY           SKY/WX    TMP DP  RH WIND       PRES   REMARKS
BRYCE CANYON   SUNNY     62  32  32 N7        30.32R
CEDAR CITY     SUNNY     61  29  29 CALM      30.19R
MILFORD        SUNNY     69  27  20 N9        30.17R
ST GEORGE      SUNNY     85  30  13 N12       29.95R
HANKSVILLE     SUNNY     72  23  16 CALM      30.11R
BLANDING       SUNNY     74  24  15 CALM      30.21R

$$

REGIONAL REPORTS     COLORADO/ARIZONA

CITY           SKY/WX    TMP DP  RH WIND       PRES   REMARKS
CRAIG, CO      SUNNY     56  35  45 SW6       30.26R
GRAND JUNCTION SUNNY     74  32  21 N6        30.11R
RIFLE, CO      SUNNY     60  38  43 CALM      30.19R
MONTROSE, CO   SUNNY     66  34  30 SE9       30.19R
CORTEZ, CO     SUNNY     65  39  38 NE6       30.15R
COLORADO CITY    N/A     70  36  28 CALM      30.11R
PAGE, AZ       SUNNY     83  35  18 CALM      30.03R
GRAND CANYON   SUNNY     62  33  33 CALM      30.24R
KINGMAN, AZ    SUNNY     82  48  30 SE8       29.96R
FLAGSTAFF, AZ  SUNNY     67  38  34 CALM      30.25S

$$

REGIONAL REPORTS    NEVADA/IDAHO/WYOMING

CITY           SKY/WX    TMP DP  RH WIND       PRES   REMARKS
LAS VEGAS, NV  MOSUNNY   93  30  10 CALM      29.85R
ELY, NY        SUNNY     55  27  34 S3        30.27S
ELKO, NV       SUNNY     56  26  31 NE5       30.24R
POCATELLO, ID  SUNNY     54  38  54 NE9       30.25R
BURLEY, ID     SUNNY     58  36  43 NE9       30.22R
FORT BRIDGER,    N/A     52  31  45 E8        30.34R
EVANSTON, WY   SUNNY     52  34  50 E13       30.30R
ROCK SPRINGS,  SUNNY     50  28  42 E10       30.32R
KEMMERER, WY     N/A     50  30  46 NE7       30.33S

$$




USA.gov is the U.S. government's official web portal to all federal, state and local government web resources and services.